COSMOS 2545 (760)

Last updated on Jan. 23, 2021, 7:31 a.m. UTC

1 45358U 20018A   21022.64080498 -.00000037  00000-0  00000-0 0  9993
2 45358  64.8808  20.9960 0011494 255.5398 294.2901  2.13102674  6642
UTC
Height (km)
Latitude
Longitude
Inclination
Orbital Period
UTC large
Height (km)
Speed (km/s)
/
Latitude / Longitude
Inclination (degrees)
Orbital Period (minutes)
Azimuth
Elevation
Range (km)
Doppler Factor
iOS Compass Heading
iOS Angle

Next 30 passes for location: Hong Kong

Rise time Rise Azimuth (degrees) Set time Set Azimuth (degrees) Duration Max altitude (degrees)

No matching passes for this satellites